sat.trackr.live / text

‹ back to catalog

ION SCV-006

NORAD 52761 · 2022-057AF

PAYLOAD ACTIVE UNKNOWN

§ Identity

Operator
Country
IT
Launch date
2022-05-25
Launch site
AFETR
Launch vehicle
Mass (kg)
RCS (m²)

External: N2YO · Heavens-Above · Gunter

§ Orbital elements

Epoch: 2026-05-24T23:28:36.064416Z

Period
93.23 min
Inclination
97.6072°
Eccentricity
0.0017400
Mean motion
15.44642349 rev/d
Perigee alt
420.6 km
Apogee alt
444.3 km
Semi-major
6,810.6 km
B*
2.4515e-4
RAAN
292.5026°
Arg perigee
193.7810°
Mean anomaly
166.2965°
Rev number
22,253

§ Raw data

ION SCV-0061 52761U 22057AF  26144.97819519  .00011389  00000+0  24515-3 0  99942 52761  97.6072 292.5026 0017400 193.7810 166.2965 15.44642349222532

JSON: /api/v1/satellites/52761 · /tle

For live sub-satellite position, see the globe view (requires WebGL).

§ Visibility from observer

Set your observer location to see the next 7 days of passes ≥ 10°. The values pass through the URL so the page stays shareable.

No JS? Fill the form by hand. The geolocation button needs JavaScript.

§ Radio — SatNOGS DB

ModeDescriptionDownlinkUplink
FSK AX.100 Mode 5 Mode U - FSK1k2 AX.100 401.415 MHz
FM S-band telemetry 2.262 GHz

2 transmitters · refreshed weekly from db.satnogs.org